| time (UTC) | temp C | wind direction | speed KPH | gust KPH | rain 1hr cm | rain 24hr cm | rain mn cm | humidity % | barometer mb |
| 20260906222513 | 31 | 17 | 1.6 | 9.7 | 0.00 | 0.00 | 0.00 | 35 | 1012.8 |
| 20260906222012 | 31 | 348 | 3.2 | 12.9 | 0.00 | 0.00 | 0.00 | 33 | 1012.8 |
| 20260906221513 | 31 | 113 | 4.8 | 12.9 | 0.00 | 0.00 | 0.00 | 34 | 1013.0 |
| 20260906221239 | 31 | 173 | 4.8 | 17.7 | 0.00 | 0.00 | 0.00 | 35 | 1012.9 |
| 20260906220510 | 32 | 329 | 4.8 | 17.7 | 0.00 | 0.00 | 0.00 | 33 | 1012.9 |
| 20260906220010 | 32 | 86 | 3.2 | 12.9 | 0.00 | 0.00 | 0.00 | 34 | 1013.1 |
| 20260906215512 | 32 | 61 | 3.2 | 12.9 | 0.00 | 0.00 | 0.00 | 33 | 1013.1 |
| 20260906215010 | 32 | 315 | 3.2 | 9.7 | 0.00 | 0.00 | 0.00 | 32 | 1013.1 |
| 20260906214511 | 32 | 37 | 4.8 | 12.9 | 0.00 | 0.00 | 0.00 | 34 | 1013.3 |
| 20260906214006 | 32 | 161 | 8.0 | 19.3 | 0.00 | 0.00 | 0.00 | 33 | 1013.3 |
| 20260906213508 | 32 | 30 | 6.4 | 19.3 | 0.00 | 0.00 | 0.00 | 34 | 1013.5 |
| 20260906213006 | 31 | 50 | 3.2 | 16.1 | 0.00 | 0.00 | 0.00 | 35 | 1013.5 |
| 20260906212729 | 31 | 45 | 3.2 | 9.7 | 0.00 | 0.00 | 0.00 | 34 | 1013.7 |
| 20260906212007 | 31 | 54 | 3.2 | 9.7 | 0.00 | 0.00 | 0.00 | 34 | 1013.8 |
| 20260906211729 | 31 | 87 | 3.2 | 11.3 | 0.00 | 0.00 | 0.00 | 35 | 1014.0 |
| 20260906211006 | 32 | 93 | 3.2 | 11.3 | 0.00 | 0.00 | 0.00 | 34 | 1014.1 |
| 20260906210507 | 32 | 20 | 3.2 | 6.4 | 0.00 | 0.00 | 0.00 | 35 | 1014.2 |
| 20260906210008 | 32 | 113 | 1.6 | 6.4 | 0.00 | 0.00 | 0.00 | 33 | 1014.2 |
| 20260906205730 | 32 | 113 | 1.6 | 6.4 | 0.00 | 0.00 | 0.00 | 33 | 1014.4 |
| 20260906205003 | 32 | 177 | 3.2 | 6.4 | 0.00 | 0.00 | 0.00 | 34 | 1014.5 |
| 20260906204504 | 31 | 296 | 3.2 | 12.9 | 0.00 | 0.00 | 0.00 | 35 | 1014.5 |
| 20260906204003 | 31 | 78 | 3.2 | 12.9 | 0.00 | 0.00 | 0.00 | 35 | 1014.5 |
| 20260906202504 | 31 | 20 | 3.2 | 11.3 | 0.00 | 0.00 | 0.00 | 36 | 1014.8 |
| 20260906202003 | 31 | 35 | 3.2 | 8.0 | 0.00 | 0.00 | 0.00 | 37 | 1014.8 |
| 20260906201503 | 31 | 15 | 3.2 | 8.0 | 0.00 | 0.00 | 0.00 | 37 | 1014.8 |
| 20260906200958 | 31 | 22 | 3.2 | 9.7 | 0.00 | 0.00 | 0.00 | 36 | 1014.9 |
| 20260906200459 | 31 | 69 | 3.2 | 11.3 | 0.00 | 0.00 | 0.00 | 36 | 1015.0 |
| 20260906195959 | 31 | 41 | 3.2 | 11.3 | 0.00 | 0.00 | 0.00 | 36 | 1015.1 |
| 20260906195458 | 31 | 126 | 1.6 | 11.3 | 0.00 | 0.00 | 0.00 | 36 | 1015.0 |
| 20260906194959 | 31 | 102 | 1.6 | 6.4 | 0.00 | 0.00 | 0.00 | 36 | 1015.1 |
| 20260906194500 | 31 | 55 | 1.6 | 6.4 | 0.00 | 0.00 | 0.00 | 34 | 1015.0 |
| 20260906193959 | 31 | 53 | 1.6 | 6.4 | 0.00 | 0.00 | 0.00 | 37 | 1015.4 |
| 20260906193500 | 31 | 154 | 1.6 | 6.4 | 0.00 | 0.00 | 0.00 | 35 | 1015.5 |
| 20260906192959 | 31 | 336 | 3.2 | 8.0 | 0.00 | 0.00 | 0.00 | 35 | 1015.5 |
| 20260906192454 | 31 | 54 | 3.2 | 9.7 | 0.00 | 0.00 | 0.00 | 37 | 1015.6 |
| 20260906191955 | 31 | 347 | 3.2 | 9.7 | 0.00 | 0.00 | 0.00 | 36 | 1015.6 |
| 20260906191454 | 30 | 64 | 3.2 | 12.9 | 0.00 | 0.00 | 0.00 | 38 | 1015.7 |
| 20260906190954 | 30 | 28 | 3.2 | 12.9 | 0.00 | 0.00 | 0.00 | 37 | 1015.8 |
| 20260906190455 | 30 | 34 | 1.6 | 8.0 | 0.00 | 0.00 | 0.00 | 38 | 1015.9 |
| 20260906185954 | 30 | 0 | 3.2 | 8.0 | 0.00 | 0.00 | 0.00 | 37 | 1015.9 |
| 20260906185456 | 30 | 0 | 4.8 | 9.7 | 0.00 | 0.00 | 0.00 | 37 | 1016.2 |
| 20260906184455 | 30 | 32 | 3.2 | 9.7 | 0.00 | 0.00 | 0.00 | 39 | 1016.4 |
| 20260906183952 | 30 | 22 | 1.6 | 9.7 | 0.00 | 0.00 | 0.00 | 38 | 1016.4 |
| 20260906183451 | 30 | 105 | 3.2 | 8.0 | 0.00 | 0.00 | 0.00 | 41 | 1016.5 |
| 20260906182952 | 29 | 28 | 3.2 | 8.0 | 0.00 | 0.00 | 0.00 | 40 | 1016.5 |
| 20260906182450 | 29 | 0 | 1.6 | 6.4 | 0.00 | 0.00 | 0.00 | 40 | 1016.8 |
| 20260906181951 | 29 | 0 | 1.6 | 8.0 | 0.00 | 0.00 | 0.00 | 40 | 1017.0 |
| 20260906181451 | 29 | 0 | 1.6 | 8.0 | 0.00 | 0.00 | 0.00 | 39 | 1016.9 |
| 20260906180951 | 29 | 0 | 3.2 | 6.4 | 0.00 | 0.00 | 0.00 | 41 | 1017.1 |
| 20260906180450 | 29 | 0 | 3.2 | 6.4 | 0.00 | 0.00 | 0.00 | 41 | 1017.2 |
| 20260906175951 | 29 | 0 | 3.2 | 6.4 | 0.00 | 0.00 | 0.00 | 43 | 1017.2 |
| 20260906175448 | 29 | 0 | 1.6 | 6.4 | 0.00 | 0.00 | 0.00 | 40 | 1017.4 |
| 20260906174947 | 29 | 74 | 1.6 | 6.4 | 0.00 | 0.00 | 0.00 | 42 | 1017.5 |
| 20260906174446 | 29 | 0 | 3.2 | 8.0 | 0.00 | 0.00 | 0.00 | 44 | 1017.5 |
| 20260906173946 | 29 | 119 | 3.2 | 8.0 | 0.00 | 0.00 | 0.00 | 41 | 1017.6 |
| 20260906173448 | 28 | 0 | 1.6 | 6.4 | 0.00 | 0.00 | 0.00 | 45 | 1017.7 |
| 20260906172946 | 28 | 0 | 1.6 | 6.4 | 0.00 | 0.00 | 0.00 | 43 | 1017.8 |
| 20260906171946 | 28 | 0 | 3.2 | 6.4 | 0.00 | 0.00 | 0.00 | 45 | 1017.8 |
| 20260906171448 | 28 | 0 | 3.2 | 8.0 | 0.00 | 0.00 | 0.00 | 44 | 1017.9 |
| 20260906170943 | 28 | 28 | 1.6 | 8.0 | 0.00 | 0.00 | 0.00 | 45 | 1018.1 |
| 20260906170444 | 28 | 197 | 1.6 | 6.4 | 0.00 | 0.00 | 0.00 | 43 | 1018.2 |
| 20260906165942 | 27 | 0 | 3.2 | 6.4 | 0.00 | 0.00 | 0.00 | 46 | 1018.2 |
| 20260906165442 | 27 | 0 | 3.2 | 6.4 | 0.00 | 0.00 | 0.00 | 47 | 1018.3 |
| 20260906163457 | 27 | 178 | 3.2 | 8.0 | 0.00 | 0.00 | 0.00 | 47 | 1018.3 |
| 20260906162439 | 26 | 0 | 1.6 | 4.8 | 0.00 | 0.00 | 0.00 | 50 | 1018.3 |
| 20260906161938 | 26 | 0 | 1.6 | 4.8 | 0.00 | 0.00 | 0.00 | 52 | 1018.3 |
| 20260906161438 | 26 | 0 | 1.6 | 4.8 | 0.00 | 0.00 | 0.00 | 52 | 1018.2 |
| 20260906160938 | 25 | 0 | 1.6 | 4.8 | 0.00 | 0.00 | 0.00 | 53 | 1018.3 |
| 20260906160451 | 25 | 0 | 0.0 | 4.8 | 0.00 | 0.00 | 0.00 | 54 | 1018.3 |
| 20260906155938 | 25 | 0 | 0.0 | 4.8 | 0.00 | 0.00 | 0.00 | 55 | 1018.3 |
| 20260906155440 | 25 | 0 | 1.6 | 4.8 | 0.00 | 0.00 | 0.00 | 52 | 1018.3 |
| 20260906154939 | 25 | 60 | 1.6 | 4.8 | 0.00 | 0.00 | 0.00 | 54 | 1018.3 |
| 20260906154452 | 25 | 61 | 1.6 | 4.8 | 0.00 | 0.00 | 0.00 | 55 | 1018.3 |
| 20260906153936 | 25 | 0 | 1.6 | 6.4 | 0.00 | 0.00 | 0.00 | 57 | 1018.3 |
| 20260906153436 | 25 | 338 | 1.6 | 6.4 | 0.00 | 0.00 | 0.00 | 58 | 1018.3 |
| 20260906152934 | 25 | 0 | 1.6 | 6.4 | 0.00 | 0.00 | 0.00 | 58 | 1018.4 |
| 20260906152434 | 24 | 0 | 1.6 | 6.4 | 0.00 | 0.00 | 0.00 | 58 | 1018.4 |
| 20260906151934 | 24 | 0 | 3.2 | 8.0 | 0.00 | 0.00 | 0.00 | 58 | 1018.4 |
| 20260906151434 | 23 | 0 | 1.6 | 8.0 | 0.00 | 0.00 | 0.00 | 61 | 1018.4 |
| 20260906150934 | 23 | 0 | 1.6 | 6.4 | 0.00 | 0.00 | 0.00 | 63 | 1018.4 |
| 20260906150434 | 23 | 0 | 1.6 | 4.8 | 0.00 | 0.00 | 0.00 | 64 | 1018.5 |
| 20260906145935 | 22 | 0 | 1.6 | 6.4 | 0.00 | 0.00 | 0.00 | 65 | 1018.5 |
| 20260906145431 | 22 | 0 | 3.2 | 6.4 | 0.00 | 0.00 | 0.00 | 65 | 1018.5 |
| 20260906144930 | 22 | 0 | 3.2 | 6.4 | 0.00 | 0.00 | 0.00 | 67 | 1018.4 |
| 20260906143931 | 21 | 0 | 1.6 | 4.8 | 0.00 | 0.00 | 0.00 | 71 | 1018.5 |
| 20260906142931 | 20 | 0 | 1.6 | 6.4 | 0.00 | 0.00 | 0.00 | 73 | 1018.5 |
| 20260906141932 | 19 | 0 | 3.2 | 6.4 | 0.00 | 0.00 | 0.00 | 75 | 1018.5 |
| 20260906141433 | 18 | 0 | 3.2 | 6.4 | 0.00 | 0.00 | 0.00 | 76 | 1018.5 |
| 20260906140941 | 18 | 0 | 1.6 | 4.8 | 0.00 | 0.00 | 0.00 | 77 | 1018.5 |
| 20260906140428 | 17 | 0 | 0.0 | 3.2 | 0.00 | 0.00 | 0.00 | 78 | 1018.6 |
| 20260906135426 | 16 | 0 | 0.0 | 3.2 | 0.00 | 0.00 | 0.00 | 80 | 1018.6 |
| 20260906134926 | 16 | 0 | 0.0 | 3.2 | 0.00 | 0.00 | 0.00 | 80 | 1018.5 |
| 20260906134426 | 16 | 0 | 0.0 | 3.2 | 0.00 | 0.00 | 0.00 | 80 | 1018.6 |
| 20260906133927 | 16 | 0 | 0.0 | 1.6 | 0.00 | 0.00 | 0.00 | 80 | 1018.5 |
| 20260906133429 | 16 | 0 | 0.0 | 3.2 | 0.00 | 0.00 | 0.00 | 80 | 1018.4 |
| 20260906132928 | 16 | 0 | 0.0 | 3.2 | 0.00 | 0.00 | 0.00 | 80 | 1018.3 |
| 20260906132424 | 16 | 0 | 0.0 | 3.2 | 0.00 | 0.00 | 0.00 | 80 | 1018.2 |
| 20260906131924 | 16 | 0 | 1.6 | 3.2 | 0.00 | 0.00 | 0.00 | 80 | 1018.3 |
| 20260906131422 | 16 | 0 | 1.6 | 3.2 | 0.00 | 0.00 | 0.00 | 79 | 1018.2 |
| 20260906130924 | 16 | 0 | 1.6 | 3.2 | 0.00 | 0.00 | 0.00 | 80 | 1018.2 |
| 20260906130424 | 16 | 0 | 0.0 | 3.2 | 0.00 | 0.00 | 0.00 | 79 | 1018.2 |
| 20260906125923 | 16 | 0 | 0.0 | 1.6 | 0.00 | 0.00 | 0.00 | 79 | 1018.2 |
| 20260906125422 | 16 | 0 | 0.0 | 1.6 | 0.00 | 0.00 | 0.00 | 79 | 1018.2 |
| 20260906124922 | 16 | 0 | 0.0 | 1.6 | 0.00 | 0.00 | 0.00 | 79 | 1017.9 |
| 20260906124424 | 16 | 0 | 0.0 | 1.6 | 0.00 | 0.00 | 0.00 | 78 | 1017.9 |
| 20260906123918 | 16 | 0 | 0.0 | 1.6 | 0.00 | 0.00 | 0.00 | 77 | 1018.1 |
| 20260906122420 | 16 | 0 | 0.0 | 0.0 | 0.00 | 0.00 | 0.00 | 76 | 1018.1 |
| 20260906121918 | 16 | 0 | 0.0 | 0.0 | 0.00 | 0.00 | 0.00 | 76 | 1018.1 |
| 20260906120418 | 17 | 0 | 0.0 | 0.0 | 0.00 | 0.00 | 0.00 | 75 | 1018.2 |
| 20260906115920 | 17 | 0 | 0.0 | 0.0 | 0.00 | 0.00 | 0.00 | 75 | 1018.2 |
| 20260906115415 | 17 | 0 | 0.0 | 0.0 | 0.00 | 0.00 | 0.00 | 74 | 1018.1 |
| 20260906114916 | 17 | 0 | 0.0 | 0.0 | 0.00 | 0.00 | 0.00 | 75 | 1017.9 |
| 20260906114414 | 17 | 0 | 0.0 | 1.6 | 0.00 | 0.00 | 0.00 | 74 | 1018.1 |
| 20260906112914 | 17 | 0 | 0.0 | 4.8 | 0.00 | 0.00 | 0.00 | 73 | 1018.2 |
| 20260906112414 | 17 | 0 | 1.6 | 4.8 | 0.00 | 0.00 | 0.00 | 73 | 1017.9 |
| 20260906111914 | 17 | 0 | 1.6 | 4.8 | 0.00 | 0.00 | 0.00 | 73 | 1017.8 |
| 20260906111416 | 17 | 0 | 3.2 | 6.4 | 0.00 | 0.00 | 0.00 | 73 | 1017.8 |
| 20260906110911 | 17 | 0 | 3.2 | 8.0 | 0.00 | 0.00 | 0.00 | 73 | 1017.8 |
| 20260906110411 | 17 | 0 | 3.2 | 9.7 | 0.00 | 0.00 | 0.00 | 73 | 1017.8 |
| 20260906105910 | 17 | 0 | 3.2 | 9.7 | 0.00 | 0.00 | 0.00 | 72 | 1017.8 |
| 20260906105410 | 18 | 0 | 3.2 | 9.7 | 0.00 | 0.00 | 0.00 | 71 | 1017.7 |
| 20260906104911 | 18 | 0 | 3.2 | 8.0 | 0.00 | 0.00 | 0.00 | 71 | 1017.7 |
| 20260906104411 | 18 | 0 | 3.2 | 8.0 | 0.00 | 0.00 | 0.00 | 70 | 1017.7 |
| 20260906103913 | 18 | 0 | 3.2 | 6.4 | 0.00 | 0.00 | 0.00 | 69 | 1017.6 |
| 20260906103410 | 18 | 0 | 3.2 | 9.7 | 0.00 | 0.00 | 0.00 | 68 | 1017.6 |
| 20260906102911 | 18 | 0 | 3.2 | 9.7 | 0.00 | 0.00 | 0.00 | 67 | 1017.6 |
| 20260906101906 | 18 | 0 | 1.6 | 6.4 | 0.00 | 0.00 | 0.00 | 66 | 1017.4 |
| 20260906101408 | 18 | 0 | 3.2 | 8.0 | 0.00 | 0.00 | 0.00 | 64 | 1017.2 |
| 20260906100906 | 18 | 0 | 3.2 | 9.7 | 0.00 | 0.00 | 0.00 | 64 | 1017.2 |
| 20260906100420 | 18 | 0 | 3.2 | 9.7 | 0.00 | 0.00 | 0.00 | 63 | 1017.4 |
| 20260906095906 | 18 | 0 | 3.2 | 9.7 | 0.00 | 0.00 | 0.00 | 62 | 1017.4 |
| 20260906094906 | 18 | 0 | 0.0 | 6.4 | 0.00 | 0.00 | 0.00 | 61 | 1017.4 |
| 20260906094407 | 18 | 0 | 0.0 | 0.0 | 0.00 | 0.00 | 0.00 | 59 | 1017.5 |
| 20260906092903 | 18 | 0 | 0.0 | 0.0 | 0.00 | 0.00 | 0.00 | 59 | 1017.4 |
| 20260906092403 | 18 | 0 | 0.0 | 0.0 | 0.00 | 0.00 | 0.00 | 59 | 1017.4 |
| 20260906091902 | 18 | 0 | 0.0 | 0.0 | 0.00 | 0.00 | 0.00 | 58 | 1017.4 |
| 20260906091402 | 19 | 0 | 0.0 | 0.0 | 0.00 | 0.00 | 0.00 | 58 | 1017.2 |
| 20260906090903 | 19 | 0 | 0.0 | 0.0 | 0.00 | 0.00 | 0.00 | 58 | 1017.2 |
| 20260906090404 | 19 | 0 | 0.0 | 0.0 | 0.00 | 0.00 | 0.00 | 58 | 1017.2 |
| 20260906085908 | 19 | 0 | 0.0 | 0.0 | 0.00 | 0.00 | 0.00 | 57 | 1017.1 |
| 20260906085400 | 19 | 0 | 0.0 | 0.0 | 0.00 | 0.00 | 0.00 | 57 | 1017.1 |
| 20260906084904 | 19 | 0 | 0.0 | 0.0 | 0.00 | 0.00 | 0.00 | 57 | 1017.1 |
| 20260906084406 | 20 | 0 | 0.0 | 0.0 | 0.00 | 0.00 | 0.00 | 57 | 1017.0 |
| 20260906083901 | 20 | 0 | 0.0 | 0.0 | 0.00 | 0.00 | 0.00 | 56 | 1016.9 |
| 20260906083403 | 20 | 0 | 0.0 | 1.6 | 0.00 | 0.00 | 0.00 | 56 | 1016.9 |
| 20260906082900 | 20 | 0 | 0.0 | 1.6 | 0.00 | 0.00 | 0.00 | 55 | 1017.0 |
| 20260906082400 | 20 | 0 | 0.0 | 1.6 | 0.00 | 0.00 | 0.00 | 54 | 1017.2 |
| 20260906081858 | 20 | 0 | 0.0 | 0.0 | 0.00 | 0.00 | 0.00 | 54 | 1017.1 |
| 20260906081359 | 20 | 0 | 0.0 | 0.0 | 0.00 | 0.00 | 0.00 | 53 | 1017.1 |
| 20260906080354 | 20 | 0 | 0.0 | 1.6 | 0.00 | 0.00 | 0.00 | 52 | 1017.0 |
| 20260906075854 | 21 | 0 | 0.0 | 1.6 | 0.00 | 0.00 | 0.00 | 52 | 1017.0 |
| 20260906074856 | 21 | 0 | 0.0 | 0.0 | 0.00 | 0.00 | 0.00 | 51 | 1016.7 |
| 20260906074355 | 21 | 0 | 0.0 | 3.2 | 0.00 | 0.00 | 0.00 | 51 | 1016.8 |
| 20260906073854 | 21 | 0 | 0.0 | 3.2 | 0.00 | 0.00 | 0.00 | 51 | 1016.7 |
| 20260906073354 | 21 | 0 | 1.6 | 6.4 | 0.00 | 0.00 | 0.00 | 51 | 1016.5 |
| 20260906072856 | 21 | 0 | 3.2 | 8.0 | 0.00 | 0.00 | 0.00 | 51 | 1016.5 |
| 20260906070850 | 21 | 0 | 4.8 | 14.5 | 0.00 | 0.00 | 0.00 | 52 | 1016.2 |
| 20260906070350 | 21 | 0 | 4.8 | 16.1 | 0.00 | 0.00 | 0.00 | 52 | 1016.3 |
| 20260906065350 | 21 | 0 | 1.6 | 9.7 | 0.00 | 0.00 | 0.00 | 53 | 1016.5 |
| 20260906064850 | 21 | 0 | 1.6 | 4.8 | 0.00 | 0.00 | 0.00 | 52 | 1016.7 |
| 20260906064352 | 21 | 0 | 1.6 | 4.8 | 0.00 | 0.00 | 0.00 | 52 | 1016.8 |
| 20260906063846 | 21 | 0 | 1.6 | 4.8 | 0.00 | 0.00 | 0.00 | 51 | 1016.8 |
| 20260906063350 | 21 | 0 | 0.0 | 1.6 | 0.00 | 0.00 | 0.00 | 52 | 1016.8 |
| 20260906062848 | 21 | 0 | 0.0 | 1.6 | 0.00 | 0.00 | 0.00 | 51 | 1016.9 |
| 20260906061847 | 22 | 0 | 0.0 | 1.6 | 0.00 | 0.00 | 0.00 | 51 | 1016.9 |
| 20260906061348 | 22 | 0 | 0.0 | 1.6 | 0.00 | 0.00 | 0.00 | 50 | 1017.0 |
| 20260906060850 | 22 | 0 | 0.0 | 1.6 | 0.00 | 0.00 | 0.00 | 50 | 1017.0 |
| 20260906055849 | 22 | 0 | 0.0 | 3.2 | 0.00 | 0.00 | 0.00 | 49 | 1017.0 |
| 20260906055343 | 22 | 0 | 1.6 | 6.4 | 0.00 | 0.00 | 0.00 | 49 | 1017.1 |
| 20260906054837 | 22 | 0 | 3.2 | 12.9 | 0.00 | 0.00 | 0.00 | 49 | 1017.1 |
| 20260906054330 | 22 | 0 | 3.2 | 12.9 | 0.00 | 0.00 | 0.00 | 49 | 1017.1 |
| 20260906053825 | 22 | 0 | 0.0 | 6.4 | 0.00 | 0.00 | 0.00 | 48 | 1017.1 |
| 20260906053320 | 22 | 0 | 0.0 | 0.0 | 0.00 | 0.00 | 0.00 | 47 | 1017.1 |
| 20260906052813 | 22 | 0 | 0.0 | 0.0 | 0.00 | 0.00 | 0.00 | 47 | 1017.4 |
| 20260906052308 | 22 | 0 | 0.0 | 6.4 | 0.00 | 0.00 | 0.00 | 46 | 1017.1 |
| 20260906051255 | 22 | 0 | 0.0 | 0.0 | 0.00 | 0.00 | 0.00 | 46 | 1017.5 |
| 20260906050754 | 22 | 0 | 0.0 | 0.0 | 0.00 | 0.00 | 0.00 | 46 | 1017.6 |
| 20260906045753 | 22 | 0 | 1.6 | 4.8 | 0.00 | 0.00 | 0.00 | 47 | 1017.7 |
| 20260906045250 | 22 | 0 | 1.6 | 6.4 | 0.00 | 0.00 | 0.00 | 46 | 1017.7 |
| 20260906044749 | 22 | 0 | 1.6 | 6.4 | 0.00 | 0.00 | 0.00 | 46 | 1017.8 |
| 20260906044249 | 22 | 0 | 0.0 | 6.4 | 0.00 | 0.00 | 0.00 | 46 | 1017.9 |
| 20260906043749 | 22 | 0 | 0.0 | 3.2 | 0.00 | 0.00 | 0.00 | 46 | 1017.7 |
| 20260906042749 | 22 | 0 | 0.0 | 3.2 | 0.00 | 0.00 | 0.00 | 47 | 1017.7 |
| 20260906041746 | 22 | 0 | 0.0 | 1.6 | 0.00 | 0.00 | 0.00 | 45 | 1017.2 |
| 20260906035738 | 22 | 0 | 0.0 | 1.6 | 0.00 | 0.00 | 0.00 | 44 | 1016.5 |
| 20260906035237 | 22 | 0 | 0.0 | 1.6 | 0.00 | 0.00 | 0.00 | 44 | 1016.3 |
| 20260906034734 | 23 | 0 | 0.0 | 1.6 | 0.00 | 0.00 | 0.00 | 44 | 1016.3 |
| 20260906034236 | 23 | 0 | 0.0 | 3.2 | 0.00 | 0.00 | 0.00 | 43 | 1016.3 |
| 20260906033730 | 23 | 0 | 0.0 | 3.2 | 0.00 | 0.00 | 0.00 | 43 | 1016.2 |
| 20260906032717 | 23 | 0 | 0.0 | 1.6 | 0.00 | 0.00 | 0.00 | 41 | 1016.2 |
| 20260906032213 | 23 | 0 | 0.0 | 1.6 | 0.00 | 0.00 | 0.00 | 41 | 1016.3 |
| 20260906031159 | 24 | 0 | 0.0 | 3.2 | 0.00 | 0.00 | 0.00 | 40 | 1016.2 |
| 20260906030654 | 25 | 0 | 0.0 | 3.2 | 0.00 | 0.00 | 0.00 | 39 | 1016.1 |
| 20260906030148 | 25 | 0 | 0.0 | 3.2 | 0.00 | 0.00 | 0.00 | 37 | 1015.8 |
| 20260906025642 | 25 | 0 | 0.0 | 0.0 | 0.00 | 0.00 | 0.00 | 36 | 1015.6 |
| 20260906024655 | 25 | 0 | 0.0 | 1.6 | 0.00 | 0.00 | 0.00 | 35 | 1015.4 |
| 20260906023638 | 26 | 0 | 0.0 | 1.6 | 0.00 | 0.00 | 0.00 | 34 | 1015.4 |
| 20260906023134 | 26 | 0 | 0.0 | 3.2 | 0.00 | 0.00 | 0.00 | 34 | 1015.2 |
| 20260906022634 | 26 | 0 | 1.6 | 4.8 | 0.00 | 0.00 | 0.00 | 33 | 1015.4 |
| 20260906022131 | 26 | 0 | 1.6 | 4.8 | 0.00 | 0.00 | 0.00 | 33 | 1015.4 |
| 20260906021644 | 26 | 0 | 1.6 | 4.8 | 0.00 | 0.00 | 0.00 | 33 | 1015.2 |
| 20260906021131 | 27 | 0 | 1.6 | 4.8 | 0.00 | 0.00 | 0.00 | 33 | 1015.1 |
| 20260906020643 | 27 | 0 | 1.6 | 6.4 | 0.00 | 0.00 | 0.00 | 33 | 1015.1 |
| 20260906020132 | 27 | 0 | 3.2 | 6.4 | 0.00 | 0.00 | 0.00 | 32 | 1015.0 |
| 20260906015628 | 27 | 0 | 3.2 | 8.0 | 0.00 | 0.00 | 0.00 | 31 | 1015.0 |
| 20260906015130 | 27 | 0 | 3.2 | 8.0 | 0.00 | 0.00 | 0.00 | 31 | 1014.9 |
| 20260906014627 | 27 | 323 | 4.8 | 11.3 | 0.00 | 0.00 | 0.00 | 31 | 1014.9 |
| 20260906014125 | 28 | 319 | 4.8 | 11.3 | 0.00 | 0.00 | 0.00 | 30 | 1014.8 |
| 20260906013624 | 28 | 0 | 4.8 | 9.7 | 0.00 | 0.00 | 0.00 | 30 | 1014.7 |
| 20260906013123 | 28 | 0 | 4.8 | 12.9 | 0.00 | 0.00 | 0.00 | 30 | 1014.7 |
| 20260906012122 | 28 | 0 | 6.4 | 12.9 | 0.00 | 0.00 | 0.00 | 30 | 1014.8 |
| 20260906011622 | 28 | 346 | 4.8 | 12.9 | 0.00 | 0.00 | 0.00 | 29 | 1014.8 |
| 20260906010125 | 28 | 0 | 4.8 | 9.7 | 0.00 | 0.00 | 0.00 | 28 | 1014.5 |
| 20260906005623 | 29 | 346 | 4.8 | 9.7 | 0.00 | 0.00 | 0.00 | 28 | 1014.7 |
| 20260906005123 | 29 | 313 | 3.2 | 9.7 | 0.00 | 0.00 | 0.00 | 28 | 1014.7 |
| 20260906004623 | 29 | 16 | 1.6 | 9.7 | 0.00 | 0.00 | 0.00 | 29 | 1014.5 |
| 20260906004121 | 29 | 0 | 0.0 | 1.6 | 0.00 | 0.00 | 0.00 | 30 | 1014.5 |
| 20260906003116 | 30 | 317 | 0.0 | 4.8 | 0.00 | 0.00 | 0.00 | 29 | 1014.5 |
| 20260906002617 | 30 | 126 | 0.0 | 4.8 | 0.00 | 0.00 | 0.00 | 30 | 1014.5 |
| 20260906002113 | 30 | 126 | 0.0 | 4.8 | 0.00 | 0.00 | 0.00 | 30 | 1014.5 |
| 20260906001613 | 30 | 126 | 0.0 | 1.6 | 0.00 | 0.00 | 0.00 | 29 | 1014.5 |
| 20260906001111 | 30 | 126 | 0.0 | 1.6 | 0.00 | 0.00 | 0.00 | 30 | 1014.5 |
| 20260906000612 | 30 | 126 | 0.0 | 1.6 | 0.00 | 0.00 | 0.00 | 28 | 1014.5 |
| 20260906000113 | 30 | 126 | 0.0 | 3.2 | 0.00 | 0.00 | 0.00 | 28 | 1014.4 |
| 20260905235611 | 30 | 126 | 0.0 | 3.2 | 0.00 | 0.00 | 0.00 | 26 | 1014.4 |
| 20260905235106 | 30 | 126 | 0.0 | 1.6 | 0.00 | 0.00 | 0.00 | 28 | 1014.4 |
| 20260905234602 | 30 | 126 | 0.0 | 1.6 | 0.00 | 0.00 | 0.00 | 28 | 1014.4 |
| 20260905234059 | 30 | 126 | 0.0 | 1.6 | 0.00 | 0.00 | 0.00 | 26 | 1014.4 |
| 20260905233548 | 30 | 126 | 0.0 | 0.0 | 0.00 | 0.00 | 0.00 | 29 | 1014.4 |
| 20260905233048 | 30 | 0 | 0.0 | 0.0 | 0.00 | 0.00 | 0.00 | 28 | 1014.4 |
| 20260905232545 | 30 | 0 | 0.0 | 0.0 | 0.00 | 0.00 | 0.00 | 28 | 1014.3 |
| 20260905231544 | 31 | 0 | 0.0 | 0.0 | 0.00 | 0.00 | 0.00 | 27 | 1014.4 |
| 20260905231040 | 31 | 126 | 0.0 | 0.0 | 0.00 | 0.00 | 0.00 | 27 | 1014.4 |
| 20260905230539 | 31 | 0 | 0.0 | 1.6 | 0.00 | 0.00 | 0.00 | 26 | 1014.5 |
| 20260905230049 | 31 | 0 | 0.0 | 3.2 | 0.00 | 0.00 | 0.00 | 28 | 1014.4 |
| 20260905225538 | 31 | 126 | 0.0 | 3.2 | 0.00 | 0.00 | 0.00 | 26 | 1014.3 |
| 20260905225036 | 31 | 0 | 0.0 | 1.6 | 0.00 | 0.00 | 0.00 | 26 | 1014.3 |
| 20260905224031 | 32 | 126 | 0.0 | 4.8 | 0.00 | 0.00 | 0.00 | 24 | 1014.4 |
| 20260905223530 | 32 | 126 | 1.6 | 8.0 | 0.00 | 0.00 | 0.00 | 25 | 1014.3 |
| 20260905222536 | 32 | 11 | 1.6 | 8.0 | 0.00 | 0.00 | 0.00 | 24 | 1014.4 |